[[[{"header":{"parameterUnit":"kt","parameterCategory":2,"dx":1,"dy":1,"la1":30.253999710083008,"la2":30.299108505249023,"lo1":-89.0895004272461,"lo2":-89.04439544677734,"nx":28,"ny":28,"refTime":"2022-09-19T21:00:00:Z","depth":0,"parameterNumber":1,"parameterNumberName":"U-component_of_WINDS"},"data":[2.5102,2.5156,2.5138,2.5191,2.5183,2.5217,2.5224,2.523,2.5229,2.5268,2.5287,2.5274,2.5267,2.5285,2.5306,2.5299,2.5311,2.5345,2.5332,2.5196,2.5176,2.5157,2.5144,2.5347,2.5347,2.5478,2.5479,2.548,2.5008,2.5001,2.5022,2.5031,2.505,2.5007,2.501,2.5029,2.5061,2.506,2.5077,2.511,2.5133,2.5113,2.5133,2.5159,2.5141,2.5166,2.5166,2.5166,2.5019,2.5005,2.5181,2.5181,2.5181,2.5181,2.5181,2.5181,2.4832,2.4865,2.4858,2.4882,2.488,2.4886,2.4915,2.4896,2.4918,2.4934,2.4906,2.4941,2.4938,2.495,2.495,2.4977,2.4946,2.4968,2.4975,2.4982,2.4994,2.4815,2.4979,2.4978,2.4978,2.4977,2.4977,0,2.4698,2.468,2.4698,2.4712,2.4728,2.4736,2.4741,2.4757,2.4711,2.4731,2.4757,2.477,2.4794,2.4818,2.4831,2.4825,2.4783,2.4775,2.4791,2.4809,2.4823,2.482,2.4585,2.4771,2.4769,2.4768,2.4767,2.4766,2.4523,2.4562,2.4544,2.456,2.4557,2.4583,2.4595,2.455,2.4565,2.4564,2.4595,2.4617,2.4633,2.4679,2.4658,2.4676,2.4656,2.473,2.4659,2.4673,2.4662,2.4662,2.4668,2.4747,2.4749,2.4751,2.4753,0,2.4427,2.4393,2.4447,2.4425,2.4421,2.4464,2.4446,2.4476,2.4454,2.4493,2.4499,2.4466,2.4492,2.4458,2.4481,2.4463,2.4538,2.4516,2.4541,2.4536,2.4602,2.4598,2.4813,2.4841,2.4626,2.4628,2.4629,0,2.4266,2.4318,2.4266,2.4298,2.4355,2.4308,2.4366,2.4353,2.4347,2.4377,2.4321,2.4351,2.4301,2.4327,2.4299,2.4354,2.4357,2.4347,2.434,2.4355,2.4357,2.4365,2.4357,2.4317,2.4316,2.4315,2.4314,0,2.4123,2.4153,2.4205,2.4207,2.4188,2.4214,2.4208,2.42,2.4211,2.422,2.4228,2.4241,2.425,2.4262,2.4227,2.418,2.4291,2.4219,2.4282,2.4283,2.4311,2.431,2.4507,2.4313,2.4312,2.4312,2.4312,0,2.3989,2.3997,2.4076,2.406,2.407,2.4103,2.4114,2.4134,2.413,2.4114,2.4121,2.408,2.4122,2.4054,2.4112,2.4062,2.4074,2.4067,2.4071,2.4076,2.4002,2.4122,2.4309,2.4329,2.4077,2.4075,2.4073,0,2.3836,2.3905,2.3865,2.3941,2.3969,2.3905,2.3942,2.3938,2.3921,2.3942,2.3922,2.3947,2.3888,2.3891,2.3924,2.3905,2.397,2.3894,2.3931,2.3933,2.3938,2.4109,2.4147,2.4271,2.4047,2.405,2.4052,0,2.3714,2.3688,2.3704,2.3705,2.3691,2.3713,2.3754,2.3768,2.3785,2.3785,2.3821,2.3852,2.3811,2.3815,2.3783,2.3819,2.3925,2.377,2.3769,2.3802,2.4029,2.4067,2.4087,2.3896,2.3899,2.3901,2.4031,0,2.3526,2.3555,2.3595,2.3596,2.3606,2.365,2.3611,2.3628,2.3596,2.3576,2.3625,2.3611,2.3625,2.3637,2.3606,2.3698,2.3678,2.3632,2.3566,2.3677,2.3719,2.3736,2.3507,2.3505,2.3503,2.3501,0,0,2.3391,2.343,2.3383,2.3421,2.3427,2.336,2.3411,2.3409,2.3407,2.3414,2.3375,2.3419,2.341,2.3474,2.3505,2.3509,2.3523,2.3485,2.3624,2.3638,2.365,2.3696,2.3714,2.3498,2.3497,2.3497,2.3496,0,2.3315,2.3304,2.3353,2.3349,2.3341,2.3316,2.3328,2.3308,2.3297,2.3343,2.3288,2.3312,2.3346,2.3345,2.3349,2.3476,2.3434,2.3482,2.3565,2.3606,2.3623,2.3637,2.3685,2.3703,2.3491,2.3492,2.3492,0,2.319,2.3174,2.3193,2.3202,2.3195,2.3224,2.3145,2.3177,2.3198,2.3123,2.317,2.3157,2.3151,2.3215,2.3241,2.3208,2.3356,2.33,2.3311,2.3314,2.3352,2.3372,2.339,2.3161,2.316,2.3159,0,0,2.313,2.3154,2.3124,2.3182,2.3182,2.3145,2.3155,2.3124,2.3119,2.3118,2.3101,2.3099,2.3118,2.3132,2.3148,2.3222,2.3219,2.3261,2.3277,2.329,2.33,2.3342,2.3361,2.3155,2.3155,2.3155,0,0,2.3101,2.3067,2.3035,2.3098,2.3095,2.3069,2.3107,2.3067,2.3077,2.3068,2.3017,2.3014,2.3072,2.3062,2.3016,2.3125,2.3059,2.3069,2.313,2.3149,2.3164,2.3167,2.2934,0,0,0,0,0,2.3003,2.3071,2.3043,2.3047,2.3057,2.3085,2.3086,2.3045,2.3,2.3032,2.3011,2.2964,2.3027,2.2986,2.2992,2.3044,2.3107,2.3115,2.3123,2.3218,2.3239,2.3256,0,0,0,0,0,0,2.3004,2.301,2.3041,2.3018,2.302,2.3082,2.2997,2.2988,2.2996,2.2986,2.2969,2.2963,2.2929,2.298,2.2986,2.3036,2.2932,2.311,2.3117,2.3124,2.3225,2.3242,2.3257,0,0,0,0,0,2.3005,2.301,2.3036,2.3017,2.3018,2.298,2.2994,2.2986,2.2991,2.2959,2.2951,2.296,2.2932,2.2934,2.2983,2.3035,2.2928,2.293,2.3115,2.3121,2.3126,2.3234,0,0,0,0,0,0,2.3006,2.3003,2.3035,2.3034,2.2987,2.2976,2.2973,2.2985,2.2963,2.2956,2.2947,2.294,2.2935,2.2936,2.2938,2.3037,2.2924,2.2927,2.2928,2.3119,2.3124,2.3128,0,0,0,0,0,0,2.3,2.3002,2.3035,2.3,2.2994,2.2972,2.2969,2.3005,2.2963,2.2951,2.2945,2.2944,2.2932,2.2937,2.2938,2.2995,2.2922,2.2924,2.2925,2.2926,2.3123,2.3126,0,0,0,0,0,0,2.3,2.3002,2.3,2.2996,2.2991,2.2977,2.3003,2.3015,2.2933,2.2953,2.2925,2.2921,2.2935,2.2935,2.2939,2.2996,2.2996,2.2922,2.2923,2.2924,2.2925,0,0,0,0,0,0,0,2.3,2.2996,2.3041,2.2992,2.2988,2.3025,2.3025,2.3024,2.2932,2.2929,2.2925,2.2922,2.2909,2.2911,2.2914,2.2997,0,0,2.2921,2.2923,0,0,0,0,0,0,0,0,2.2995,2.2996,2.3041,2.3041,2.3041,2.3025,2.3025,2.3024,2.2932,2.2929,2.2926,2.2924,2.2909,2.2911,2.2913,0,0,0,0,0,0,0,0,0,0,0,0,0,0,0,2.3041,2.3041,0,2.3025,2.3025,2.3024,2.2931,2.2929,2.2927,2.2925,2.291,2.2912,2.2913,0,0,0,0,0,0,0,0,0,0,0,0,0,0,0,0,0,0,0,0,0,0,0,0,0,0,0,0,0,0,0,0,0,0,0,0,0,0,0,0,0,0,0,0,0,0,0,0,0,0,0,0,0,0,0,0,0,0,0,0,0,0,0,0,0,0,0,0,0]}],[{"header":{"parameterUnit":"kt","parameterCategory":2,"dx":1,"dy":1,"la1":30.253999710083008,"la2":30.299108505249023,"lo1":-89.0895004272461,"lo2":-89.04439544677734,"nx":28,"ny":28,"refTime":"2022-09-19T21:00:00:Z","depth":0,"parameterNumber":2,"parameterNumberName":"V-component_of_WINDS"},"data":[-4.7904,-4.8038,-4.8069,-4.8235,-4.8291,-4.841,-4.8462,-4.8533,-4.8596,-4.8741,-4.883,-4.8873,-4.8948,-4.9061,-4.9158,-4.9175,-4.9215,-4.9241,-4.9256,-4.9113,-4.9095,-4.9078,-4.9049,-4.9248,-4.9249,-4.9401,-4.9402,-4.9404,-4.7799,-4.7855,-4.7952,-4.8066,-4.815,-4.8143,-4.8233,-4.8303,-4.8409,-4.8488,-4.8577,-4.8707,-4.8813,-4.8879,-4.8986,-4.9049,-4.9052,-4.9076,-4.9072,-4.9084,-4.8932,-4.8901,-4.9072,-4.9072,-4.9072,-4.9072,-4.9072,-4.9072,-4.7615,-4.7694,-4.7781,-4.7886,-4.7951,-4.8028,-4.8108,-4.8159,-4.8254,-4.8369,-4.8386,-4.8506,-4.859,-4.8733,-4.8787,-4.8882,-4.886,-4.8895,-4.8905,-4.8913,-4.892,-4.8699,-4.8901,-4.89,-4.89,-4.89,-4.8899,0,-4.749,-4.751,-4.7605,-4.7709,-4.7787,-4.787,-4.7951,-4.8001,-4.8052,-4.8127,-4.824,-4.8309,-4.8446,-4.8554,-4.866,-4.871,-4.871,-4.8712,-4.8737,-4.8732,-4.8714,-4.8727,-4.8478,-4.8706,-4.8705,-4.8704,-4.8703,-4.8702,-4.7308,-4.7396,-4.75,-4.7563,-4.7614,-4.7714,-4.7779,-4.7817,-4.7885,-4.799,-4.8057,-4.8166,-4.8255,-4.8428,-4.8486,-4.8588,-4.8589,-4.8673,-4.8604,-4.8596,-4.8592,-4.8587,-4.8597,-4.8686,-4.8688,-4.869,-4.8691,0,-4.7203,-4.7252,-4.7397,-4.7491,-4.7517,-4.7607,-4.7688,-4.7767,-4.7808,-4.7923,-4.7952,-4.8016,-4.8124,-4.8169,-4.8301,-4.8321,-4.847,-4.8468,-4.8442,-4.8444,-4.8525,-4.8518,-4.8778,-4.8815,-4.8606,-4.8608,-4.861,0,-4.7067,-4.7181,-4.7246,-4.7328,-4.7455,-4.749,-4.7615,-4.7662,-4.7734,-4.7825,-4.7833,-4.7918,-4.7961,-4.8052,-4.8082,-4.8211,-4.8235,-4.8259,-4.8265,-4.8259,-4.8256,-4.8295,-4.8286,-4.8275,-4.8273,-4.8272,-4.8271,0,-4.6899,-4.7065,-4.7198,-4.7244,-4.7355,-4.7416,-4.7465,-4.7546,-4.7609,-4.7698,-4.774,-4.784,-4.7895,-4.7973,-4.801,-4.7962,-4.8169,-4.811,-4.8192,-4.8192,-4.8236,-4.8233,-4.8452,-4.8269,-4.8269,-4.8268,-4.8268,0,-4.6796,-4.6886,-4.7071,-4.7164,-4.7206,-4.7293,-4.7395,-4.7479,-4.7564,-4.7588,-4.7658,-4.7668,-4.7783,-4.7722,-4.7882,-4.7809,-4.7863,-4.7896,-4.7902,-4.7916,-4.7846,-4.7965,-4.8168,-4.8192,-4.7928,-4.7925,-4.7923,0,-4.6591,-4.679,-4.6821,-4.6995,-4.7093,-4.7095,-4.7192,-4.7267,-4.7307,-4.7396,-4.744,-4.754,-4.7503,-4.7541,-4.7614,-4.7663,-4.7758,-4.7652,-4.7779,-4.7783,-4.7758,-4.7945,-4.7965,-4.8119,-4.7887,-4.7891,-4.7894,0,-4.6438,-4.6572,-4.66,-4.6654,-4.6758,-4.6839,-4.695,-4.7058,-4.7115,-4.7197,-4.7291,-4.7432,-4.7411,-4.7472,-4.749,-4.7564,-4.7695,-4.753,-4.7533,-4.756,-4.7872,-4.7891,-4.7916,-4.7691,-4.7695,-4.7699,-4.7865,0,-4.6275,-4.6379,-4.6459,-4.6575,-4.6645,-4.6755,-4.6803,-4.6869,-4.688,-4.692,-4.7058,-4.713,-4.7237,-4.7277,-4.7288,-4.7443,-4.7424,-4.7399,-4.7343,-4.7465,-4.7521,-4.7544,-4.7256,-4.7254,-4.7253,-4.7252,0,0,-4.6067,-4.6218,-4.6248,-4.6357,-4.6417,-4.6417,-4.6532,-4.659,-4.6708,-4.675,-4.6719,-4.6928,-4.6986,-4.7149,-4.7191,-4.7234,-4.7266,-4.7221,-4.7406,-4.7423,-4.7439,-4.7498,-4.7521,-4.725,-4.725,-4.7249,-4.7249,0,-4.6017,-4.6078,-4.619,-4.6253,-4.6346,-4.6383,-4.641,-4.6502,-4.6532,-4.6667,-4.6665,-4.6753,-4.6917,-4.6981,-4.7034,-4.7203,-4.7196,-4.7232,-4.7308,-4.7393,-4.7411,-4.7428,-4.7489,-4.7511,-4.7246,-4.7246,-4.7246,0,-4.5876,-4.5944,-4.6002,-4.614,-4.62,-4.63,-4.6253,-4.6359,-4.6434,-4.6426,-4.656,-4.6606,-4.6693,-4.6841,-4.6908,-4.6882,-4.7129,-4.7058,-4.7067,-4.7075,-4.7159,-4.7181,-4.7201,-4.6941,-4.694,-4.6939,0,0,-4.5826,-4.5923,-4.6007,-4.6132,-4.6171,-4.6226,-4.6283,-4.63,-4.6379,-4.6411,-4.6469,-4.6545,-4.6642,-4.6704,-4.6796,-4.6951,-4.6972,-4.7019,-4.7033,-4.7045,-4.7059,-4.7146,-4.7168,-4.6934,-4.6934,-4.6934,0,0,-4.5802,-4.5905,-4.5902,-4.6053,-4.6129,-4.6219,-4.6294,-4.6292,-4.638,-4.6372,-4.6404,-4.6426,-4.6564,-4.6608,-4.654,-4.6777,-4.6721,-4.6738,-4.6743,-4.6762,-4.6776,-4.6763,-4.6501,0,0,0,0,0,-4.5775,-4.5892,-4.5888,-4.592,-4.6093,-4.6221,-4.6244,-4.6273,-4.6233,-4.6292,-4.634,-4.6328,-4.6578,-4.6519,-4.655,-4.6625,-4.6873,-4.6884,-4.6894,-4.6938,-4.6957,-4.6974,0,0,0,0,0,0,-4.5788,-4.5827,-4.5885,-4.598,-4.6019,-4.6218,-4.6156,-4.6168,-4.6228,-4.6223,-4.6319,-4.6331,-4.6358,-4.6505,-4.6532,-4.6604,-4.6491,-4.6878,-4.6887,-4.6895,-4.6945,-4.696,-4.6974,0,0,0,0,0,-4.5798,-4.583,-4.6099,-4.5978,-4.6012,-4.608,-4.6152,-4.6161,-4.6208,-4.6282,-4.6294,-4.6225,-4.6359,-4.6384,-4.6521,-4.659,-4.6473,-4.6483,-4.6884,-4.6891,-4.6897,-4.6952,0,0,0,0,0,0,-4.5806,-4.5839,-4.6106,-4.6118,-4.5936,-4.6069,-4.6091,-4.6155,-4.6263,-4.6276,-4.6189,-4.6184,-4.6361,-4.638,-4.64,-4.6584,-4.6457,-4.6468,-4.6474,-4.6889,-4.6895,-4.69,0,0,0,0,0,0,-4.5822,-4.5849,-4.6112,-4.6057,-4.6062,-4.6059,-4.6079,-4.6199,-4.6265,-4.6164,-4.6163,-4.6186,-4.6332,-4.6378,-4.6393,-4.6579,-4.6445,-4.6455,-4.6462,-4.6466,-4.6894,-4.6898,0,0,0,0,0,0,-4.5834,-4.5857,-4.6054,-4.6058,-4.6063,-4.6193,-4.6166,-4.634,-4.6219,-4.6159,-4.6208,-4.6204,-4.633,-4.6346,-4.6389,-4.6569,-4.6577,-4.6446,-4.6452,-4.6457,-4.646,0,0,0,0,0,0,0,-4.5843,-4.5684,-4.6039,-4.606,-4.6063,-4.6223,-4.6226,-4.6229,-4.6218,-4.6213,-4.6209,-4.6206,-4.6389,-4.6399,-4.641,-4.656,0,0,-4.6445,-4.6449,0,0,0,0,0,0,0,0,-4.5675,-4.5682,-4.6039,-4.6041,-4.6044,-4.6223,-4.6226,-4.6228,-4.6217,-4.6214,-4.621,-4.6207,-4.6392,-4.64,-4.6409,0,0,0,0,0,0,0,0,0,0,0,0,0,0,0,-4.6039,-4.6041,0,-4.6224,-4.6226,-4.6228,-4.6216,-4.6214,-4.6211,-4.6208,-4.6394,-4.6401,-4.6409,0,0,0,0,0,0,0,0,0,0,0,0,0,0,0,0,0,0,0,0,0,0,0,0,0,0,0,0,0,0,0,0,0,0,0,0,0,0,0,0,0,0,0,0,0,0,0,0,0,0,0,0,0,0,0,0,0,0,0,0,0,0,0,0,0,0,0,0,0]}]]]